Location: Goodsell Observatory
(44.4617°N, 93.1522°W)
Time: 21:22:27
(UTC-05:00)

Daily predictions for brighter satellites

Satellite Brightness Start Highest point End
(mag) Time Altitude Azimuth Time Altitude Azimuth Time Altitude Azimuth
Cosmos 2056 Rocket 4.3 21:14:20 10° N 21:19:07 36° ENE 21:23:48 10° SE
Cosmos 1437 3.7 21:18:10 10° SSW 21:21:18 52° WNW 21:24:29 10° N
Cosmos 1437 Rocket 3.9 21:18:16 10° NNE 21:21:35 27° ENE 21:24:55 10° SE
Cosmos 1656 Rocket 4.3 21:17:19 10° NNW 21:22:39 56° WSW 21:28:00 10° S
Cosmos 1833 Rocket 4.5 21:20:32 10° ESE 21:22:40 12° E 21:24:49 10° ENE
SAR-Lupe-1 4.1 21:19:35 10° SSE 21:23:10 80° ENE 21:26:46 10° N
Cosmos 1536 Rocket 4.2 21:21:03 10° SSW 21:25:19 60° W 21:29:37 10° N
Envisat 3.3 21:20:59 10° S 21:26:03 71° WSW 21:31:09 10° NNW
Helios 1B rocket 2.5 21:22:51 10° NNE 21:27:01 88° ESE 21:31:09 10° SSW
USA 186 3.9 21:26:40 10° SSW 21:29:23 25° W 21:32:02 10° NW
Meteor 2-4 Rocket 3.8 21:24:35 10° S 21:30:11 67° E 21:35:59 10° NNE
PSLV R/B 4.0 21:27:23 10° W 21:30:14 33° SSW 21:32:59 11° SE
Cosmos 405 3.0 21:33:02 10° N 21:36:37 69° E 21:40:08 10° SSE
Cosmos 192 4.3 21:31:47 10° S 21:36:40 71° ESE 21:41:34 10° NNE
Cosmos 1726 Rocket 4.4 21:35:08 10° N 21:39:03 33° ENE 21:42:37 12° SE
Cosmos 1025 Rocket 3.1 21:38:07 10° S 21:42:18 58° E 21:46:30 10° NNE
USA 245 3.9 21:42:20 13° ESE 21:43:42 18° ENE 21:45:26 10° NNE
COSMOS 2487 4.1 21:43:45 13° SE 21:45:35 18° E 21:48:05 10° NE
Cosmos 2074 Rocket 4.5 21:42:29 10° NNW 21:48:40 64° W 21:54:50 10° S
CZ-3A R/B 1.6 21:46:11 10° SSW 21:49:19 22° SSE 21:50:16 17° ESE
Cosmos 1980 Rocket 4.0 21:47:28 10° N 21:51:27 19° NE 21:55:24 10° E
Cosmos 405 Rocket 4.2 21:48:33 10° SW 21:52:05 38° WNW 21:55:43 10° N
Aureole 1 Rocket 3.0 21:50:10 10° SSW 21:53:18 53° WNW 21:56:14 10° NNE
Cosmos 2058 Rocket 3.9 21:49:36 10° N 21:53:41 35° ENE 21:56:51 15° SE
Cosmos 2181 Rocket 4.5 21:49:49 10° SSE 21:55:47 44° E 22:01:41 10° NNE
SPOT 1/Viking Rocket 4.2 21:51:40 13° SE 21:55:49 40° ENE 22:00:36 10° N
YAOGAN 11 4.3 21:52:10 13° SSE 21:55:50 55° ENE 22:00:06 10° N
Tiangong 2 1.2 21:55:03 10° WSW 21:58:10 54° S 22:00:58 12° E
Cosmos 1371 Rocket 4.1 21:53:32 10° NNW 21:58:54 83° WSW 22:03:45 12° SSE
Okean 2 3.3 21:54:54 10° S 21:58:57 69° E 22:03:01 10° NNE
Cosmos 1441 Rocket 3.8 21:57:06 10° SSW 22:00:46 57° WNW 22:04:28 10° N
Lacrosse 5 rocket 4.2 21:58:31 10° NW 22:01:37 17° N 22:04:45 10° NE
ARGOS 3.3 21:58:32 13° SSE 22:03:16 65° ENE 22:08:39 10° N
ERS-1 Rocket 3.2 22:01:45 10° S 22:06:45 69° WSW 22:11:46 10° NNW
Meteor 1-23 Rocket 4.3 22:02:00 10° SSW 22:07:34 79° W 22:13:13 10° N
NOAA 11 4.2 22:05:25 11° SSE 22:10:42 82° WSW 22:16:10 10° NNW
Terra 3.2 22:07:57 15° ESE 22:10:52 25° ENE 22:14:46 10° N
SPOT 5 2.6 22:09:29 17° SSE 22:12:46 73° ENE 22:17:09 10° N
CENTAUR R/B 4.5 22:09:07 10° NW 22:15:55 31° WSW 22:23:00 10° S
Cosmos 962 Rocket 4.5 22:10:12 10° N 22:16:30 83° E 22:21:52 14° S
H-2A R/B 3.5 22:15:12 16° ESE 22:17:45 27° ENE 22:21:32 10° N
MetOp-B 4.4 22:18:17 13° S 22:23:06 70° WSW 22:28:29 10° NNW
Cosmos 2278 3.7 22:21:37 10° NNW 22:27:22 89° WSW 22:31:16 21° SSE
Cosmos 1626 Rocket 4.5 22:26:20 23° SE 22:27:56 30° E 22:31:43 10° NNE
Cosmos 2082 Rocket 2.5 22:23:35 12° S 22:28:31 47° ESE 22:33:56 10° NE
MOS 1-B Rocket 4.4 22:26:28 12° S 22:31:44 63° W 22:38:14 10° NNW
ISS -2.6 22:30:22 10° W 22:33:32 44° NNW 22:36:44 10° NE
SL-8 Rocket 4.0 22:27:53 10° N 22:34:10 71° E 22:38:28 21° SSE
SL-24 DEB 4.3 22:35:50 18° S 22:39:14 75° W 22:43:53 10° N
Cosmos 2366 rocket 4.1 22:33:50 10° N 22:39:55 58° ENE 22:43:33 25° SSE
H-2A R/B 1.9 22:40:27 24° SSE 22:43:30 89° WSW 22:48:36 10° NNW
Cosmos 2228 3.0 22:39:40 10° N 22:44:00 81° W 22:46:19 26° S
Cosmos 921 Rocket 3.6 22:42:26 10° NNW 22:46:48 52° WSW 22:49:22 22° S
Cosmos 2369 4.0 22:41:29 10° NNW 22:47:09 64° WSW 22:50:41 23° S
Meteor 1-4 Rocket 2.5 22:44:07 10° N 22:47:43 69° ENE 22:48:46 41° SSE
Cosmos 1697 Rocket 2.8 22:42:18 10° NNW 22:47:55 69° ENE 22:50:57 28° SE
SL-08 RB Rocket 4.3 22:50:33 21° SSW 22:53:21 51° W 22:57:44 10° NNW
SL-16 R/B 4.0 22:49:28 10° N 22:53:43 21° NE 22:57:37 11° E
Cosmos 1656 3.7 22:49:43 10° NNW 22:55:10 76° WSW 22:58:04 29° SSE
CZ-4B R/B 4.4 22:50:56 10° NNE 22:55:29 32° E 22:56:47 28° SE
Cosmos 1842 4.2 22:59:00 29° E 22:59:18 30° E 23:02:45 10° NNE
TELKOM 3 3.9 22:56:52 10° WNW 22:59:15 48° SW 22:59:15 48° SW
Cosmos 1602 Rocket 3.5 23:01:03 36° SSE 23:02:41 70° E 23:07:00 10° NNE
DMSP B5D2-2 4.0 22:58:07 10° NNE 23:03:27 79° ESE 23:06:34 25° S
Cosmos 1271 Rocket 3.4 23:00:10 10° N 23:03:52 40° ENE 23:04:38 36° ESE
Cosmos 1833 Rocket 2.6 23:00:37 13° SSW 23:05:40 86° ESE 23:11:21 10° NNE
CZ-4 R/B 4.2 23:04:57 10° NNE 23:09:51 50° E 23:11:25 37° SSE
deb Chang Zheng 4 3.6 23:06:13 10° NNE 23:10:30 61° ESE 23:11:40 43° SSE
Cosmos 1269 Rocket 4.2 23:10:47 35° SSE 23:12:40 54° ESE 23:17:50 10° NNE
Timation 2 Rocket 3.9 23:08:52 23° S 23:12:55 64° ESE 23:19:01 10° NNE
SL-08 R/B 4.5 23:08:06 10° N 23:14:14 79° W 23:17:34 29° S
Cosmos 389 Rocket 3.9 23:15:01 10° NNE 23:17:56 25° ENE 23:17:59 25° ENE
Cosmos 1953 3.4 23:14:47 10° N 23:18:28 32° ENE 23:19:02 30° E
Cosmos 1420 Rocket 4.0 23:14:08 10° NNW 23:19:25 78° WSW 23:21:26 38° S
Cosmos 2218 Rocket 4.3 23:14:24 10° NNW 23:20:29 63° W 23:24:05 25° SSW
COSMOS 2487 4.4 23:17:40 10° SW 23:20:50 29° WNW 23:24:01 10° N
DELTA 2 DEB (DPAF) 4.5 23:20:03 40° ESE 23:21:15 53° ENE 23:25:39 10° N
Meteor 2-14 Rocket 4.4 23:16:56 10° N 23:23:02 86° W 23:25:54 34° S
Cosmos 1048 Rocket 3.9 23:22:41 37° S 23:24:38 70° ESE 23:29:49 10° NNE
CARTOSAT-1 3.9 23:27:22 39° SSW 23:28:41 56° W 23:32:57 10° NNW
Cosmos 1452 Rocket 4.5 23:28:21 10° NW 23:33:13 39° WSW 23:35:24 27° SSW
Cosmos 2360 Rocket 4.3 23:30:25 10° N 23:34:20 19° NE 23:38:15 10° E
Cosmos 1766 3.5 23:30:30 10° NNW 23:34:21 60° W 23:35:01 51° SW
Tiangong 2 2.8 23:31:38 10° W 23:33:11 25° W 23:33:11 25° W
Cosmos 1544 2.9 23:32:12 10° N 23:35:51 83° E 23:35:56 81° ESE
Cosmos 1980 Rocket 2.1 23:30:31 10° NNW 23:36:12 83° WSW 23:38:08 43° SSE
Meteor 1-21 4.2 23:39:12 34° SSW 23:41:49 82° W 23:47:37 10° N
Lacrosse 5 rocket 3.1 23:37:54 10° NW 23:42:06 32° NNE 23:45:12 16° E
SME Rocket 3.9 23:43:00 38° ESE 23:44:21 48° ENE 23:48:20 10° N
Cosmos 2322 Rocket 2.9 23:41:13 10° NNW 23:46:44 47° ENE 23:48:59 31° ESE
Terra 2.8 23:46:49 30° SW 23:48:25 39° W 23:52:53 10° NNW
Nadezhda 3 Rocket 4.0 23:46:50 37° S 23:49:34 86° E 23:55:58 10° N
Cosmos 1470 3.6 23:46:40 10° N 23:50:26 38° ENE 23:50:32 38° E
Cosmos 1758 Rocket 3.7 23:50:40 54° ESE 23:50:52 54° E 23:55:07 10° NNE
USA 267 3.5 23:45:07 10° ENE 23:51:23 46° SE 23:52:59 39° SSE
H-2A R/B 3.3 23:52:19 28° SW 23:53:36 34° W 23:57:45 10° NNW
